{"data":{"norad_id":66175,"intl_designator":"2025-242A","name":"GAOFEN-14 02","alt_names":[],"object_type":"PAYLOAD","status":"ACTIVE","operator":null,"country":"PRC","launch_date":"2025-10-26","launch_site_code":"XICLF","launch_vehicle":null,"mission":null,"orbit_class":"UNKNOWN","rcs_meters":null,"size_class":null,"mass_kg":null,"dimensions":null,"purposes":[],"wikipedia_slug":null,"has_3d_model":false,"image_url":null,"decayed_at":null,"tle_current":{"epoch":"2026-09-20T22:43:05.079648Z","epoch_age_seconds":96604,"freshness":"FRESH","line1":"1 66175U 25242A   26263.94658657  .00003133  00000+0  13433-3 0  9995","line2":"2 66175  97.4044 338.6088 0010511   0.4057 359.7186 15.23447489 50297","mean_motion":15.23447489,"eccentricity":0.0010511,"inclination_deg":97.4044,"raan_deg":338.6088,"arg_perigee_deg":0.4057,"mean_anomaly_deg":359.7186,"bstar":0.00013433,"rev_number":5029,"period_min":94.522457150474,"perigee_km":488.22645555241,"apogee_km":502.67611284345,"semimajor_km":6873.5882841979,"source":"CELESTRAK","updated_at":"2026-09-21T09:00:15.819512Z"}}}